Sexton Summit, OR

8:50 AM PDT on May 25, 2018 (GMT -0700)
Sexton Summit

Weather History for KSXT - November, 2012

Change the Weather History Date:

Friday, November 16, 2012

  Actual Average Record
Temperature  
Mean Temperature 42 °F -  
Max Temperature 46 °F 43 °F 69 °F (2008)
Min Temperature 39 °F 34 °F 27 °F (2015)
Degree Days  
Heating Degree Days 22    
Moisture  
Dew Point 36 °F    
Average Humidity 77    
Maximum Humidity 89    
Minimum Humidity 60    
Precipitation  
Precipitation 0.00 in - - ()
Sea Level Pressure  
Sea Level Pressure 29.86 in    
Wind  
Wind Speed 11 mph (SSE)    
Max Wind Speed 16 mph    
Max Gust Speed 22 mph    
Visibility 10 miles    
Events Rain    
Averages and records for this station are not official NWS values.
T = Trace of Precipitation, MM = Missing Value Source: NWS Daily Summary

Daily Weather History Graph

Daily Weather History Graph

Search for Another Location

Airport or City:

Astronomy

Nov. 16, 2012 Rise Set
Actual Time 7:06 AM PST 4:49 PM PST
Civil Twilight 6:36 AM PST 5:19 PM PST
Nautical Twilight 6:02 AM PST 5:54 PM PST
Astronomical Twilight 5:28 AM PST 6:27 PM PST
Moon 10:07 AM PST (11/16) 7:54 PM PST (11/16)
Length of Visible Light 10h 43m
Length of Day
9h 42m
Waxing Crescent, 12% of the Moon is Illuminated
Nov 16
Waxing Crescent
Nov 20
First Quarter
Nov 28
Full
Dec 6
Last Quarter
Dec 13
New

Hourly Weather History & Observations

Time (PST) Temp. Windchill Dew Point Humidity Pressure Visibility Wind Dir Wind Speed Gust Speed Precip Events Conditions
12:56 AM 43.0 °F 37.2 °F 37.9 °F 82% 29.90 in 10.0 mi South 10.4 mph - N/A   Clear
1:56 AM 43.0 °F 37.7 °F 37.9 °F 82% 29.89 in 10.0 mi South 9.2 mph - N/A   Clear
2:56 AM 43.0 °F 37.7 °F 37.9 °F 82% 29.90 in 10.0 mi South 9.2 mph - N/A   Clear
3:56 AM 42.1 °F 36.1 °F 37.0 °F 82% 29.89 in 10.0 mi South 10.4 mph - N/A   Clear
4:56 AM 41.0 °F 34.7 °F 37.0 °F 86% 29.89 in 10.0 mi South 10.4 mph - N/A   Clear
5:56 AM 39.9 °F 33.4 °F 37.0 °F 89% 29.90 in 10.0 mi South 10.4 mph - N/A   Clear
6:56 AM 39.9 °F 33.4 °F 36.0 °F 86% 29.90 in 10.0 mi SSE 10.4 mph - N/A   Clear
7:56 AM 41.0 °F 35.2 °F 34.0 °F 76% 29.90 in 10.0 mi SSE 9.2 mph - N/A   Clear
8:56 AM 43.0 °F 38.2 °F 36.0 °F 76% 29.90 in 10.0 mi SSE 8.1 mph - N/A   Overcast
9:56 AM 43.0 °F 37.7 °F 36.0 °F 76% 29.90 in 10.0 mi South 9.2 mph - N/A   Overcast
10:56 AM 44.1 °F 38.6 °F 37.0 °F 76% 29.90 in 10.0 mi South 10.4 mph - N/A   Overcast
11:56 AM 43.0 °F 36.8 °F 35.1 °F 74% 29.88 in 10.0 mi South 11.5 mph - N/A   Overcast
12:56 PM 45.0 °F 39.7 °F 33.1 °F 63% 29.87 in 10.0 mi South 10.4 mph - N/A   Overcast
1:56 PM 45.0 °F 39.3 °F 32.0 °F 60% 29.86 in 10.0 mi South 11.5 mph - N/A   Overcast
2:56 PM 46.0 °F 41.4 °F 33.1 °F 61% 29.86 in 10.0 mi South 9.2 mph - N/A   Overcast
3:56 PM 45.0 °F 39.3 °F 33.1 °F 63% 29.86 in 10.0 mi South 11.5 mph - N/A   Overcast
4:56 PM 44.1 °F 37.7 °F 33.1 °F 65% 29.84 in 10.0 mi SSE 12.7 mph - N/A   Overcast
5:56 PM 44.1 °F 38.1 °F 34.0 °F 68% 29.84 in 10.0 mi South 11.5 mph 19.6 mph N/A   Overcast
6:56 PM 43.0 °F 37.2 °F 34.0 °F 71% 29.83 in 10.0 mi South 10.4 mph 17.3 mph N/A   Overcast
7:56 PM 42.1 °F 34.2 °F 35.1 °F 76% 29.83 in 10.0 mi South 16.1 mph 21.9 mph 0.00 in   Overcast
8:56 PM 42.1 °F 34.9 °F 36.0 °F 79% 29.82 in 10.0 mi SE 13.8 mph - 0.00 in   Overcast
9:29 PM 42.8 °F 35.8 °F 37.4 °F 81% 29.82 in 9.0 mi SSE 13.8 mph 19.6 mph 0.00 in Rain Light Rain
9:56 PM 41.0 °F 34.7 °F 37.9 °F 89% 29.81 in 10.0 mi SE 10.4 mph - 0.00 in Rain Light Rain
10:56 PM 41.0 °F 34.7 °F 37.0 °F 86% 29.79 in 9.0 mi SE 10.4 mph - 0.00 in Rain Light Rain
11:56 PM 41.0 °F 33.9 °F 37.0 °F 86% 29.76 in 10.0 mi SE 12.7 mph - 0.00 in   Overcast